| time (UTC) | temp C | wind direction | speed KPH | gust KPH | rain 1hr cm | rain 24hr cm | rain mn cm | humidity % | barometer mb |
| 20260504044541 | 8 | 0 | 1.6 | 6.4 | 0.00 | 0.00 | 0.00 | 59 | 1012.0 |
| 20260504043050 | 8 | 176 | 1.6 | 6.4 | 0.00 | 0.00 | 0.00 | 59 | 1011.9 |
| 20260504041543 | 9 | 159 | 3.2 | 6.4 | 0.00 | 0.00 | 0.00 | 57 | 1011.8 |
| 20260504040048 | 10 | 0 | 0.0 | 4.8 | 0.00 | 0.00 | 0.00 | 56 | 1011.7 |
| 20260504034544 | 10 | 0 | 1.6 | 8.0 | 0.00 | 0.00 | 0.00 | 55 | 1011.7 |
| 20260504033042 | 10 | 188 | 3.2 | 8.0 | 0.00 | 0.00 | 0.00 | 55 | 1011.6 |
| 20260504031547 | 10 | 193 | 6.4 | 9.7 | 0.00 | 0.00 | 0.00 | 54 | 1011.5 |
| 20260504030042 | 10 | 201 | 4.8 | 8.0 | 0.00 | 0.00 | 0.00 | 52 | 1011.5 |
| 20260504024601 | 11 | 0 | 0.0 | 6.4 | 0.00 | 0.00 | 0.00 | 52 | 1011.5 |
| 20260504023048 | 10 | 233 | 3.2 | 6.4 | 0.00 | 0.00 | 0.00 | 51 | 1011.5 |
| 20260504021544 | 11 | 193 | 4.8 | 11.3 | 0.00 | 0.00 | 0.00 | 50 | 1011.5 |
| 20260504020044 | 11 | 194 | 4.8 | 9.7 | 0.00 | 0.00 | 0.00 | 50 | 1011.4 |
| 20260504014544 | 11 | 197 | 6.4 | 11.3 | 0.00 | 0.00 | 0.00 | 48 | 1011.4 |
| 20260504013040 | 12 | 186 | 6.4 | 12.9 | 0.00 | 0.00 | 0.00 | 48 | 1011.3 |
| 20260504011539 | 12 | 189 | 8.0 | 14.5 | 0.00 | 0.00 | 0.00 | 47 | 1011.2 |
| 20260504010047 | 12 | 193 | 11.3 | 17.7 | 0.00 | 0.00 | 0.00 | 45 | 1011.2 |
| 20260504004547 | 12 | 202 | 8.0 | 14.5 | 0.00 | 0.00 | 0.00 | 46 | 1011.1 |
| 20260504003048 | 13 | 226 | 9.7 | 16.1 | 0.00 | 0.00 | 0.00 | 44 | 1010.8 |
| 20260504001544 | 13 | 193 | 9.7 | 16.1 | 0.00 | 0.00 | 0.00 | 43 | 1010.8 |
| 20260504000106 | 14 | 214 | 9.7 | 16.1 | 0.00 | 0.00 | 0.00 | 40 | 1010.6 |
| 20260503234553 | 14 | 231 | 12.9 | 22.5 | 0.00 | 0.00 | 0.00 | 38 | 1010.5 |
| 20260503233043 | 15 | 210 | 9.7 | 22.5 | 0.00 | 0.00 | 0.00 | 37 | 1010.4 |
| 20260503231542 | 15 | 214 | 12.9 | 24.1 | 0.00 | 0.00 | 0.00 | 36 | 1010.4 |
| 20260503230041 | 15 | 227 | 12.9 | 25.7 | 0.00 | 0.00 | 0.00 | 37 | 1010.5 |
| 20260503224541 | 15 | 219 | 11.3 | 27.4 | 0.00 | 0.00 | 0.00 | 36 | 1010.4 |
| 20260503223046 | 15 | 248 | 11.3 | 29.0 | 0.00 | 0.00 | 0.00 | 34 | 1010.3 |
| 20260503221551 | 15 | 281 | 9.7 | 27.4 | 0.00 | 0.00 | 0.00 | 35 | 1010.3 |
| 20260503220047 | 16 | 215 | 12.9 | 22.5 | 0.00 | 0.00 | 0.00 | 34 | 1010.4 |
| 20260503214543 | 15 | 239 | 14.5 | 32.2 | 0.00 | 0.00 | 0.00 | 35 | 1010.4 |
| 20260503213041 | 15 | 219 | 12.9 | 32.2 | 0.00 | 0.00 | 0.00 | 35 | 1010.2 |
| 20260503211540 | 16 | 215 | 14.5 | 29.0 | 0.00 | 0.00 | 0.00 | 34 | 1010.0 |
| 20260503210045 | 15 | 219 | 14.5 | 29.0 | 0.00 | 0.00 | 0.00 | 34 | 1010.1 |
| 20260503204545 | 15 | 236 | 14.5 | 37.0 | 0.00 | 0.00 | 0.00 | 34 | 1010.1 |
| 20260503203057 | 15 | 271 | 14.5 | 35.4 | 0.00 | 0.00 | 0.00 | 32 | 1010.2 |
| 20260503201543 | 16 | 196 | 16.1 | 30.6 | 0.00 | 0.00 | 0.00 | 33 | 1010.1 |
| 20260503200050 | 16 | 190 | 14.5 | 27.4 | 0.00 | 0.00 | 0.00 | 32 | 1010.3 |
| 20260503194550 | 15 | 264 | 16.1 | 30.6 | 0.00 | 0.00 | 0.00 | 32 | 1010.5 |
| 20260503193044 | 15 | 254 | 12.9 | 35.4 | 0.00 | 0.00 | 0.00 | 34 | 1010.9 |
| 20260503191542 | 15 | 261 | 17.7 | 35.4 | 0.00 | 0.00 | 0.00 | 33 | 1010.9 |
| 20260503190044 | 15 | 217 | 14.5 | 35.4 | 0.00 | 0.00 | 0.00 | 33 | 1011.1 |
| 20260503184549 | 15 | 229 | 11.3 | 24.1 | 0.00 | 0.00 | 0.00 | 33 | 1011.0 |
| 20260503183045 | 14 | 255 | 14.5 | 29.0 | 0.00 | 0.00 | 0.00 | 34 | 1011.3 |
| 20260503181541 | 14 | 241 | 11.3 | 17.7 | 0.00 | 0.00 | 0.00 | 33 | 1011.4 |
| 20260503180042 | 14 | 276 | 14.5 | 25.7 | 0.00 | 0.00 | 0.00 | 32 | 1011.5 |
| 20260503174541 | 13 | 310 | 11.3 | 25.7 | 0.00 | 0.00 | 0.00 | 34 | 1011.8 |
| 20260503173054 | 13 | 280 | 14.5 | 22.5 | 0.00 | 0.00 | 0.00 | 34 | 1012.1 |
| 20260503171542 | 12 | 251 | 14.5 | 27.4 | 0.00 | 0.00 | 0.00 | 37 | 1012.2 |
| 20260503081548 | 5 | 0 | 3.2 | 6.4 | 0.00 | 0.00 | 0.00 | 66 | 1012.4 |
| 20260503071549 | 5 | 360 | 4.8 | 12.9 | 0.00 | 0.00 | 0.00 | 64 | 1011.9 |
| 20260503054540 | 6 | 352 | 6.4 | 12.9 | 0.00 | 0.03 | 0.00 | 61 | 1012.1 |